UAL820 KLAX-VHHH

Flight info

Callsign UAL820
Flight time N/A
Altitude 34000
Route SUMMR2 MCKEY DCT LIBBO DCT BRINY DCT BOARS DCT BOXER DCT FULMR DCT FASEL DCT 50N140W 52N150W 54N160W/N0482F360 55N170W DCT ELLES DCT ONEIL G469 NYMPH/N0492F370 R220 NOGAL/N0492F380 R220 IXE Y88 NAKTU Y12 KOHWA Y54 TURFY Y24 KOSHI/N0480F400 Y50 IGMON A1 APU DCT MKG A1 ELATO V522 ABBEY
Aircraft B789/H-SDE1E2E3FGHIJ2J3J4J5M1RWXY/LB1D1

Departure

Time 2026-04-21 16:34
Airport Los Angeles International Airport (KLAX)

Arrival

Time N/A
Airport Hong Kong International Airport (VHHH)
Time Latitude Longitude Altitude Speed Heading
2026-04-21 16:10 33.94025 -118.39994 141 ft 0 kts 33°
2026-04-21 16:23 33.94022 -118.39997 141 ft 2 kts 33°
2026-04-21 16:23 33.94007 -118.40009 141 ft 3 kts 33°
2026-04-21 16:23 33.93990 -118.40022 141 ft 3 kts 33°
2026-04-21 16:24 33.93973 -118.40035 141 ft 3 kts 33°
2026-04-21 16:24 33.93959 -118.40049 141 ft 3 kts 57°
2026-04-21 16:24 33.93953 -118.40069 141 ft 3 kts 80°
2026-04-21 16:24 33.93950 -118.40089 141 ft 1 kts 83°
2026-04-21 16:25 33.93950 -118.40090 141 ft 0 kts 83°
2026-04-21 16:27 33.93952 -118.40075 141 ft 5 kts 83°
2026-04-21 16:28 33.93960 -118.39994 141 ft 14 kts 83°
2026-04-21 16:28 33.93972 -118.39875 141 ft 10 kts 83°
2026-04-21 16:28 33.93982 -118.39774 141 ft 13 kts 83°
2026-04-21 16:28 33.93995 -118.39636 141 ft 20 kts 83°
2026-04-21 16:29 33.94009 -118.39493 141 ft 17 kts 83°
2026-04-21 16:29 33.94023 -118.39346 141 ft 13 kts 83°
2026-04-21 16:29 33.94036 -118.39208 141 ft 20 kts 83°
2026-04-21 16:29 33.94045 -118.39092 141 ft 10 kts 91°
2026-04-21 16:30 33.93998 -118.39009 141 ft 12 kts 129°
2026-04-21 16:30 33.93987 -118.38913 141 ft 16 kts 87°
2026-04-21 16:30 33.93996 -118.38791 141 ft 12 kts 84°
2026-04-21 16:30 33.94009 -118.38665 141 ft 19 kts 82°
2026-04-21 16:31 33.94029 -118.38479 141 ft 26 kts 85°
2026-04-21 16:31 33.94037 -118.38394 141 ft 0 kts 82°
2026-04-21 16:31 33.94039 -118.38378 141 ft 5 kts 88°
2026-04-21 16:31 33.94034 -118.38364 141 ft 0 kts 126°
2026-04-21 16:32 33.94033 -118.38364 141 ft 0 kts 126°
2026-04-21 16:33 33.94017 -118.38352 141 ft 7 kts 158°
2026-04-21 16:33 33.93976 -118.38338 141 ft 2 kts 178°
2026-04-21 16:33 33.93954 -118.38371 141 ft 7 kts 264°
2026-04-21 16:33 33.93949 -118.38410 141 ft 12 kts 262°
2026-04-21 16:34 33.93912 -118.38765 141 ft 84 kts 263°
2026-04-21 16:34 33.93805 -118.39797 143 ft 162 kts 262°
2026-04-21 16:34 33.93671 -118.41243 806 ft 168 kts 264°
2026-04-21 16:34 33.93557 -118.42681 1709 ft 175 kts 266°
2026-04-21 16:35 33.93518 -118.44198 2508 ft 182 kts 268°
2026-04-21 16:35 33.93455 -118.45693 3371 ft 187 kts 267°